DW5533 Weather Reports


time (UTC)temp
C
wind
direction
speed
KPH
gust
KPH
rain 1hr
cm
rain 24hr
cm
rain mn
cm
humidity
%
barometer
mb
20260509113030 1 62 0.0 0.0 0.00 0.00 0.00 86 1013.1
20260509111529 0 62 0.0 0.0 0.00 0.00 0.00 91 1013.1
20260509110027 0 62 0.0 0.0 0.00 0.00 0.00 92 1013.1
20260509104527 0 62 0.0 0.0 0.00 0.00 0.00 92 1013.1
20260509103026 0 62 0.0 0.0 0.00 0.00 0.00 92 1013.1
20260509101525 0 62 0.0 0.0 0.00 0.00 0.00 92 1013.0
20260509100024 0 62 0.0 0.0 0.00 0.00 0.00 91 1013.1
20260509094522 0 62 0.0 0.0 0.00 0.00 0.00 91 1012.8
20260509093022 0 62 0.0 0.0 0.00 0.00 0.00 91 1012.4
20260509091519 0 62 0.0 0.0 0.00 0.00 0.00 91 1012.4
20260509090018 0 62 0.0 0.0 0.00 0.00 0.00 90 1012.3
20260509084523 0 62 0.0 0.0 0.00 0.00 0.00 91 1012.1
20260509083017 0 62 0.0 0.0 0.00 0.00 0.00 90 1012.0
20260509081516 0 62 0.0 0.0 0.00 0.00 0.00 90 1012.1
20260509080015 0 62 0.0 0.0 0.00 0.00 0.00 90 1012.2
20260509074514 0 62 0.0 0.0 0.00 0.00 0.00 90 1012.3
20260509073012 0 62 0.0 0.0 0.00 0.00 0.00 89 1012.3
20260509071511 0 62 0.0 0.0 0.00 0.00 0.00 88 1012.3
20260509070010 0 62 0.0 0.0 0.00 0.00 0.00 88 1012.3
20260509064507 0 62 0.0 0.0 0.00 0.00 0.00 87 1012.2
20260509063006 0 62 0.0 0.0 0.00 0.00 0.00 86 1012.3
20260509061505 0 62 0.0 0.0 0.00 0.00 0.00 86 1012.2
20260509060003 0 62 0.0 0.0 0.00 0.00 0.00 86 1012.1
20260509054502 0 62 0.0 0.0 0.00 0.00 0.00 86 1012.0
20260509053105 1 62 0.0 0.0 0.00 0.00 0.00 85 1011.9
20260509051604 1 62 0.0 0.0 0.00 0.00 0.00 84 1011.9
20260509050056 1 62 0.0 0.0 0.00 0.00 0.00 83 1011.9
20260509044553 1 62 0.0 0.0 0.00 0.00 0.00 83 1011.9
20260509043059 1 62 0.0 0.0 0.00 0.00 0.00 82 1011.9
20260509041550 2 62 0.0 0.0 0.00 0.00 0.00 82 1012.0
20260509040048 2 62 0.0 0.0 0.00 0.00 0.00 79 1011.8
20260509034550 2 62 0.0 0.0 0.00 0.00 0.00 81 1011.7
20260509033044 2 62 0.0 0.0 0.00 0.00 0.00 78 1011.4
20260509031556 2 62 0.0 0.0 0.00 0.00 0.00 78 1011.3
20260509030041 2 62 0.0 0.0 0.00 0.00 0.00 76 1011.2
20260509024541 3 62 0.0 0.0 0.00 0.00 0.00 75 1011.2
20260509023039 3 62 0.0 0.0 0.00 0.00 0.00 75 1011.1
20260509021537 3 62 0.0 0.0 0.00 0.00 0.00 73 1011.0
20260509020034 3 62 0.0 0.0 0.00 0.00 0.00 75 1010.9
20260509014533 3 62 0.0 0.0 0.00 0.00 0.00 75 1010.7
20260509013040 3 62 0.0 0.0 0.00 0.00 0.00 73 1010.5
20260509011530 4 62 0.0 0.0 0.00 0.00 0.00 74 1010.3
20260509010029 5 62 0.0 0.0 0.00 0.00 0.00 73 1010.1
20260509004533 5 62 0.0 0.0 0.00 0.00 0.00 70 1010.0
20260509003024 6 62 0.0 0.0 0.00 0.00 0.00 65 1009.8
20260509001522 7 62 0.0 0.0 0.00 0.00 0.00 59 1009.6
20260509000021 7 62 0.0 0.0 0.00 0.00 0.00 54 1009.5
20260508234521 7 62 0.0 0.0 0.00 0.00 0.00 57 1009.4
20260508233019 7 62 0.0 1.6 0.00 0.00 0.00 49 1009.1
20260508231518 7 59 0.0 0.0 0.00 0.00 0.00 51 1009.1
20260508230017 8 80 0.0 0.0 0.00 0.00 0.00 51 1009.1
20260508224516 8 80 0.0 0.0 0.00 0.00 0.00 51 1009.0
20260508223023 8 5 0.0 1.6 0.00 0.00 0.00 50 1008.8
20260508221522 8 5 0.0 1.6 0.00 0.00 0.00 47 1008.8
20260508220022 9 330 0.0 4.8 0.00 0.00 0.00 47 1008.7
20260508214511 9 49 0.0 6.4 0.00 0.00 0.00 45 1008.5
20260508213015 9 65 0.0 14.5 0.00 0.00 0.00 47 1008.5
20260508211509 9 37 0.0 3.2 0.00 0.00 0.00 46 1008.5
20260508210008 9 338 0.0 1.6 0.00 0.00 0.00 47 1008.3
20260508204508 9 285 0.0 6.4 0.00 0.00 0.00 44 1008.4
20260508203012 9 5 0.0 6.4 0.00 0.00 0.00 44 1008.3
20260508201507 9 315 0.0 4.8 0.00 0.00 0.00 46 1008.2
20260508200007 8 132 1.6 9.7 0.00 0.00 0.00 45 1008.3
20260508194504 9 249 0.0 6.4 0.00 0.00 0.00 47 1008.4
20260508193003 8 14 0.0 4.8 0.00 0.00 0.00 49 1008.3
20260508191502 8 275 0.0 1.6 0.00 0.00 0.00 49 1008.3
20260508190000 8 317 0.0 8.0 0.00 0.00 0.00 48 1008.3
20260508184500 8 261 0.0 6.4 0.00 0.00 0.00 49 1008.3
20260508183105 7 217 0.0 4.8 0.00 0.00 0.00 49 1008.3
20260508181615 8 215 0.0 11.3 0.00 0.00 0.00 49 1008.3
20260508180118 8 232 0.0 8.0 0.00 0.00 0.00 50 1008.2
20260508174609 8 200 0.0 6.4 0.00 0.00 0.00 49 1007.9
20260508173058 8 49 0.0 6.4 0.00 0.00 0.00 51 1008.0
20260508171557 8 254 0.0 6.4 0.00 0.00 0.00 54 1007.9
20260508170056 8 268 0.0 4.8 0.00 0.00 0.00 57 1007.8
20260508164556 7 209 0.0 6.4 0.00 0.00 0.00 59 1008.0
20260508163050 7 330 0.0 4.8 0.00 0.00 0.00 66 1008.0
20260508161548 7 65 0.0 3.2 0.00 0.00 0.00 66 1007.9
20260508160048 6 26 0.0 0.0 0.00 0.00 0.00 75 1008.1
20260508154554 6 25 0.0 0.0 0.00 0.00 0.00 75 1008.3
20260508153045 6 244 0.0 1.6 0.00 0.00 0.00 71 1008.3
20260508151543 7 267 0.0 3.2 0.00 0.00 0.00 64 1008.0
20260508150042 7 224 0.0 4.8 0.00 0.00 0.00 64 1007.8
20260508144538 7 194 0.0 3.2 0.00 0.03 0.00 67 1007.9
20260508143037 6 197 0.0 4.8 0.00 0.03 0.00 70 1008.0
20260508141544 6 202 0.0 0.0 0.00 0.03 0.00 72 1007.9
20260508140027 6 202 0.0 6.4 0.00 0.03 0.00 71 1008.0
20260508134525 6 313 0.0 0.0 0.00 0.03 0.00 71 1008.0
20260508133022 5 313 0.0 1.6 0.00 0.03 0.00 72 1007.9
20260508131519 5 109 0.0 1.6 0.00 0.03 0.00 75 1008.0
20260508130016 5 109 0.0 0.0 0.00 0.03 0.00 77 1007.9
20260508124512 3 109 0.0 0.0 0.00 0.03 0.00 78 1008.0
20260508123008 3 108 0.0 0.0 0.00 0.03 0.00 82 1008.0
20260508121505 2 109 0.0 0.0 0.00 0.03 0.00 83 1007.9
20260508120104 2 108 0.0 0.0 0.00 0.03 0.00 86 1007.7
20260508114501 1 108 0.0 0.0 0.00 0.03 0.00 89 1007.8